EQUISAT (43552 NORAD) Tracking and Keplerian Element Data

This shows tracking and keplerian element data for the satellite.

Feedback or suggestion? Click here.




ElementValue
Catalog43552
NameEQUISAT
Epoch Orbit1898
Epoch Day316.55329
Epoch Year2018
RAAN357.7041
Inclination51.6401
Eccentricity0.0007313
Argument of Perigee47.5745
Mean Anonmoly312.5865
Mean Motion15.56874854
Decay Rate9.564E-05
L11 43552U 98067PA 18316.55329000 .00009564 00000-0 13709-3 0 9999
L22 43552 51.6401 357.7041 0007313 47.5745 312.5865 15.56874854 18980

Live tracking and technical data element details for EQUISAT (NORAD 43552). EQUISAT can be tracked NOW for your location showing map with azimuth and elevation plus other details from your city location.

Track the satellite on the map from your city or location and see movement details for azimuth, elevation, latitude, longitude, range, height, and movement on the map or in text.







IsCatalogInMostPopularTable: catalog: 43552, numindb: 39
Update: records affected: 1



GetName: 43552 EQUISAT

Hit Count: updated at: Tue, 13 Nov 2018 06:42:53 GMT